| time (UTC) | temp C | wind direction | speed KPH | gust KPH | rain 1hr cm | rain 24hr cm | rain mn cm | humidity % | barometer mb |
| 20260505153010 | 7 | 315 | 6.4 | 29.0 | 0.00 | 0.00 | 0.00 | 53 | 1011.1 |
| 20260505151508 | 8 | 339 | 8.0 | 24.1 | 0.00 | 0.00 | 0.00 | 53 | 1010.9 |
| 20260505130106 | 5 | 315 | 4.8 | 12.9 | 0.00 | 0.00 | 0.00 | 66 | 1010.2 |
| 20260505124552 | 5 | 330 | 4.8 | 9.7 | 0.00 | 0.00 | 0.00 | 67 | 1010.0 |
| 20260505123045 | 5 | 328 | 0.0 | 1.6 | 0.00 | 0.00 | 0.00 | 68 | 1009.9 |
| 20260505121539 | 3 | 242 | 0.0 | 1.6 | 0.00 | 0.00 | 0.00 | 71 | 1009.7 |
| 20260505120035 | 2 | 248 | 0.0 | 0.0 | 0.00 | 0.00 | 0.00 | 72 | 1009.4 |
| 20260505114533 | 2 | 283 | 0.0 | 0.0 | 0.00 | 0.00 | 0.00 | 72 | 1009.1 |
| 20260505113031 | 1 | 284 | 0.0 | 0.0 | 0.00 | 0.00 | 0.00 | 74 | 1008.7 |
| 20260505111535 | 0 | 284 | 0.0 | 0.0 | 0.00 | 0.00 | 0.00 | 76 | 1008.3 |
| 20260505101520 | 0 | 79 | 0.0 | 1.6 | 0.00 | 0.00 | 0.00 | 77 | 1007.6 |
| 20260505100027 | 0 | 288 | 0.0 | 1.6 | 0.00 | 0.00 | 0.00 | 76 | 1007.6 |
| 20260505094519 | 0 | 316 | 0.0 | 1.6 | 0.00 | 0.00 | 0.00 | 77 | 1007.7 |
| 20260505093018 | 0 | 224 | 0.0 | 0.0 | 0.00 | 0.00 | 0.00 | 76 | 1007.7 |
| 20260505091516 | 0 | 225 | 0.0 | 0.0 | 0.00 | 0.00 | 0.00 | 75 | 1007.5 |
| 20260505090014 | 0 | 244 | 0.0 | 0.0 | 0.00 | 0.00 | 0.00 | 75 | 1007.3 |
| 20260505084517 | 1 | 244 | 0.0 | 0.0 | 0.00 | 0.00 | 0.00 | 74 | 1007.0 |
| 20260505083013 | 1 | 244 | 0.0 | 1.6 | 0.00 | 0.00 | 0.00 | 73 | 1006.8 |
| 20260505081508 | 1 | 233 | 0.0 | 1.6 | 0.00 | 0.00 | 0.00 | 73 | 1006.6 |
| 20260505080006 | 1 | 233 | 0.0 | 1.6 | 0.00 | 0.00 | 0.00 | 74 | 1006.5 |
| 20260505074505 | 1 | 233 | 0.0 | 1.6 | 0.00 | 0.00 | 0.00 | 73 | 1006.5 |
| 20260505073005 | 1 | 248 | 0.0 | 1.6 | 0.00 | 0.00 | 0.00 | 73 | 1006.4 |
| 20260505071506 | 1 | 274 | 0.0 | 0.0 | 0.00 | 0.00 | 0.00 | 71 | 1006.4 |
| 20260505070112 | 2 | 274 | 0.0 | 0.0 | 0.00 | 0.00 | 0.00 | 70 | 1006.4 |
| 20260505064559 | 2 | 49 | 0.0 | 1.6 | 0.00 | 0.00 | 0.00 | 69 | 1006.5 |
| 20260505063054 | 2 | 18 | 0.0 | 1.6 | 0.00 | 0.00 | 0.00 | 68 | 1006.4 |
| 20260505061557 | 3 | 354 | 0.0 | 1.6 | 0.00 | 0.00 | 0.00 | 66 | 1006.4 |
| 20260505060049 | 3 | 357 | 0.0 | 1.6 | 0.00 | 0.00 | 0.00 | 65 | 1006.5 |
| 20260505054553 | 3 | 65 | 0.0 | 1.6 | 0.00 | 0.00 | 0.00 | 65 | 1006.3 |
| 20260505053055 | 3 | 334 | 0.0 | 0.0 | 0.00 | 0.00 | 0.00 | 66 | 1006.3 |
| 20260505051545 | 3 | 96 | 0.0 | 0.0 | 0.00 | 0.00 | 0.00 | 65 | 1006.3 |
| 20260505041536 | 3 | 304 | 0.0 | 0.0 | 0.00 | 0.00 | 0.00 | 63 | 1006.1 |
| 20260505040040 | 4 | 304 | 0.0 | 0.0 | 0.00 | 0.00 | 0.00 | 62 | 1006.2 |
| 20260505034529 | 5 | 304 | 0.0 | 0.0 | 0.00 | 0.00 | 0.00 | 60 | 1006.2 |
| 20260505033031 | 6 | 304 | 0.0 | 3.2 | 0.00 | 0.00 | 0.00 | 58 | 1006.2 |
| 20260505031522 | 6 | 322 | 1.6 | 6.4 | 0.00 | 0.00 | 0.00 | 56 | 1006.2 |
| 20260505030025 | 7 | 338 | 6.4 | 14.5 | 0.00 | 0.00 | 0.00 | 55 | 1006.1 |
| 20260505024515 | 7 | 316 | 11.3 | 20.9 | 0.00 | 0.00 | 0.00 | 53 | 1005.9 |
| 20260505023018 | 8 | 335 | 16.1 | 27.4 | 0.00 | 0.00 | 0.00 | 53 | 1005.6 |
| 20260505021509 | 8 | 329 | 24.1 | 41.8 | 0.00 | 0.00 | 0.00 | 51 | 1005.1 |
| 20260505020004 | 9 | 332 | 20.9 | 33.8 | 0.00 | 0.00 | 0.00 | 51 | 1004.8 |
| 20260505014502 | 9 | 326 | 20.9 | 33.8 | 0.00 | 0.00 | 0.00 | 51 | 1004.4 |
| 20260505013102 | 9 | 264 | 11.3 | 22.5 | 0.00 | 0.00 | 0.00 | 50 | 1004.1 |
| 20260505011556 | 10 | 339 | 11.3 | 35.4 | 0.00 | 0.00 | 0.00 | 49 | 1003.8 |
| 20260505010100 | 10 | 329 | 20.9 | 35.4 | 0.00 | 0.00 | 0.00 | 49 | 1003.5 |
| 20260505004550 | 10 | 330 | 9.7 | 27.4 | 0.00 | 0.00 | 0.00 | 49 | 1003.2 |
| 20260505003046 | 11 | 326 | 16.1 | 40.2 | 0.00 | 0.00 | 0.00 | 49 | 1003.1 |
| 20260505001543 | 11 | 331 | 8.0 | 29.0 | 0.00 | 0.00 | 0.00 | 49 | 1002.8 |
| 20260505000041 | 11 | 293 | 8.0 | 33.8 | 0.00 | 0.00 | 0.00 | 48 | 1002.7 |
| 20260504234539 | 12 | 287 | 9.7 | 43.5 | 0.00 | 0.00 | 0.00 | 48 | 1002.4 |
| 20260504233042 | 13 | 329 | 12.9 | 24.1 | 0.00 | 0.00 | 0.00 | 47 | 1002.3 |
| 20260504231535 | 13 | 327 | 22.5 | 37.0 | 0.00 | 0.00 | 0.00 | 46 | 1002.1 |
| 20260504230034 | 14 | 309 | 17.7 | 35.4 | 0.00 | 0.00 | 0.00 | 45 | 1001.9 |
| 20260504224534 | 15 | 299 | 14.5 | 33.8 | 0.00 | 0.00 | 0.00 | 43 | 1001.6 |
| 20260504223033 | 15 | 347 | 11.3 | 27.4 | 0.00 | 0.00 | 0.00 | 44 | 1001.3 |
| 20260504221536 | 16 | 10 | 3.2 | 37.0 | 0.00 | 0.00 | 0.00 | 43 | 1001.0 |
| 20260504220033 | 16 | 347 | 4.8 | 22.5 | 0.00 | 0.00 | 0.00 | 43 | 1000.8 |
| 20260504214533 | 15 | 332 | 24.1 | 38.6 | 0.00 | 0.00 | 0.00 | 40 | 1000.6 |
| 20260504213031 | 16 | 249 | 6.4 | 27.4 | 0.00 | 0.00 | 0.00 | 42 | 1000.5 |
| 20260504211531 | 16 | 247 | 9.7 | 22.5 | 0.00 | 0.00 | 0.00 | 41 | 1000.3 |
| 20260504210031 | 16 | 327 | 14.5 | 37.0 | 0.00 | 0.00 | 0.00 | 40 | 1000.3 |
| 20260504204530 | 16 | 324 | 12.9 | 40.2 | 0.00 | 0.00 | 0.00 | 39 | 1000.3 |
| 20260504203032 | 16 | 345 | 9.7 | 27.4 | 0.00 | 0.00 | 0.00 | 39 | 1000.5 |
| 20260504201528 | 17 | 307 | 9.7 | 46.7 | 0.00 | 0.00 | 0.00 | 37 | 1000.5 |
| 20260504200037 | 17 | 355 | 12.9 | 35.4 | 0.00 | 0.00 | 0.00 | 37 | 1000.3 |
| 20260504194526 | 17 | 23 | 8.0 | 24.1 | 0.00 | 0.00 | 0.00 | 35 | 1000.1 |
| 20260504193026 | 17 | 325 | 8.0 | 19.3 | 0.00 | 0.00 | 0.00 | 34 | 1000.1 |
| 20260504191537 | 17 | 346 | 9.7 | 61.2 | 0.00 | 0.00 | 0.00 | 34 | 999.8 |
| 20260504190024 | 17 | 300 | 6.4 | 24.1 | 0.00 | 0.00 | 0.00 | 38 | 999.8 |
| 20260504184522 | 17 | 346 | 9.7 | 24.1 | 0.00 | 0.00 | 0.00 | 41 | 999.5 |
| 20260504183036 | 17 | 3 | 11.3 | 27.4 | 0.00 | 0.00 | 0.00 | 40 | 999.5 |
| 20260504181526 | 17 | 336 | 9.7 | 24.1 | 0.00 | 0.00 | 0.00 | 42 | 999.1 |
| 20260504180022 | 17 | 144 | 3.2 | 29.0 | 0.00 | 0.00 | 0.00 | 41 | 999.0 |
| 20260504174522 | 17 | 347 | 9.7 | 25.7 | 0.00 | 0.00 | 0.00 | 42 | 998.7 |
| 20260504173021 | 18 | 313 | 19.3 | 38.6 | 0.00 | 0.00 | 0.00 | 44 | 998.6 |
| 20260504171519 | 17 | 301 | 19.3 | 32.2 | 0.00 | 0.00 | 0.00 | 41 | 998.6 |